C/2008 Q1 (Maticic)
Epoch 2009 Jan. 9.0 TT = JDT 2454840.5  
T 2008 Dec. 30.13383 TT                                 Nakano
q   2.9591398            (2000.0)            P               Q
z  +0.0016840      Peri.  104.48091     -0.17173908     -0.97485963
 +/-0.0000012      Node     9.30771     -0.79516377     +0.05210137
e   0.9950168      Incl.  118.62656     +0.58156708     -0.21664290
From 663 observations 2008 Aug. 18-2009 Apr. 15, mean residual 0".47.
   (1/a)org.= +0.001759, (1/a)fut.= +0.001824 (+/-0.000001), Q= 7.
Residuals in seconds of arc 
2008/                     080901 J53  0.9-  0.7-    081002 B37  0.2-  0.6-  
080818 106  0.2+  0.4-    080901 J53  1.0-  0.8-    081004 D88  0.5+  0.5+  
080818 106  0.5+  0.1-    080902 B37  0.8-  1.0-    081004 D88  1.2+  0.2+  
080818 106  0.2-  0.3-    080902 B37  0.2+  0.4-    081004 D88  0.0   0.4-  
080818 106  0.2+  0.5-    080902 B37  0.4-  0.4-    081005 130  0.3+  0.4-  
080819 B03  0.4-  0.1-    080902 B37  0.5-  0.5-    081005 130  0.7+  0.4-  
080819 106  0.7-  0.7+    080902 J70  1.3-  0.1-    081005 130  0.0   0.2-  
080819 118  0.0   0.1+    080902 J70  1.0-  0.1-    081005 130  0.4+  0.2-  
080819 118  0.3-  0.8+    080902 J70  1.0-  0.6-    081006 J79  0.1+  0.4-  
080819 106  0.2-  0.2+    080902 J97  1.1+  0.2+    081006 J79  0.2+  0.0   
080819 B03  0.3-  0.4+    080902 J97  0.7+  0.7+    081006 J79  0.2-  0.1+  
080819 118  0.2-  0.1+    080902 J97  0.7+  0.7+    081007 704  0.6+  0.6-  
080819 106  0.1-  0.1+    080902 A71  0.2-  0.1-    081007 704  0.6+  0.5-  
080819 106  0.0   0.7+    080902 A71  0.1+  0.2+    081007 704  0.4+  0.7-  
080819 B03  0.1+  0.2-    080902 A71  0.1+  0.3-    081007 704  0.5+  1.5-  
080819 595  0.1+  0.2-    080902 B09  0.5+  0.2-    081007 629  0.1-  0.2+  
080819 B55  0.1+  0.0     080903 104  0.4+  0.0     081007 629  0.1-  0.1-  
080819 B03  0.0   0.7+    080903 104  0.1+  0.1+    081009 G96  0.2+  0.4-  
080819 595  0.1-  0.3+    080903 104  0.1+  0.0     081009 G96  0.0   0.1-  
080819 B03  0.2-  0.2+    080903 585  0.2+  1.3+    081009 G96  0.3+  0.4-  
080819 B55  0.3-  0.2+    080903 585  0.9-  0.7+    081009 G96  0.3-  0.4-  
080819 B55  0.9-  0.4+    080903 585  0.6-  0.1-    081009 900  0.1-  0.3-  
080819 B03  0.0   0.1-    080903 585  0.2+  0.6+    081009 900  0.0   0.1-  
080819 595  0.3-  0.1-    080903 585  0.2+  0.2-    081009 585  0.3+  0.6-  
080819 B03  0.1+  0.2-    080903 585  0.6-  0.6-    081009 585  1.0+  1.3-  
080819 B03  0.1-  0.0     080903 585  0.2-  0.6+    081009 585  1.0+  1.1-  
080819 J95  0.1+  0.0     080903 585  0.0   0.3+    081009 585  0.5-  0.2-  
080819 235  0.1-  0.1+    080903 585  0.2+  0.2-    081009 585  0.2+  0.5-  
080819 J95  0.1-  0.2+    080903 585  0.8-  0.4+    081009 585  0.0   1.0-  
080819 J95  0.0   0.2+    080903 B37  0.6-  0.6+    081009 585  0.7-  0.6-  
080819 235  0.0   0.0     080903 B37  0.2+  0.2-    081009 585  0.1+  0.1-  
080819 J95  0.1-  0.1+    080903 B37  0.0   0.5-    081010 B37  0.5+  0.4+  
080819 J95  0.0   0.2+    080903 B37  0.2+  0.5+    081010 B37  0.1+  0.3+  
080820 H85  0.2-  0.1+    080903 B37  0.2-  0.2+    081010 B37  0.6+  0.0   
080820 H55  0.2-  0.3+    080904 213  0.0   0.5+    081010 J38  0.0   0.1+  
080820 H55  0.1-  0.2+    080904 213  0.0   0.7+    081010 J38  0.3-  0.2-  
080820 H55  0.1+  0.1+    080904 213  0.0   1.0+    081010 J38  0.2+  0.4-  
080820 H85  0.2+  0.1+    080904 B58  0.1+  0.2+    081010 B37  0.5+  0.1-  
080820 932  0.1-  0.2+    080904 B58  0.5+  0.5-    081011 355  0.4+  0.3-  
080820 932  0.1-  0.3+    080904 B58  0.2+  0.2+    081011 355  0.3+  0.4-  
080820 932  0.1-  0.3+    080904 J40  0.1-  0.1-    081011 355  0.1-  0.2+  
080820 355  1.3+  0.4-    080904 J40  0.5+  0.0     081011 355  0.5+  0.3-  
080820 355 (2.0+  0.2-)   080904 J40  0.1-  0.2+    081011 J47  0.2-  0.6-  
080820 355  0.8+  0.3+    080904 J40  0.2-  0.3-    081011 J47  0.1+  0.0   
080820 355  1.4+  0.8+    080906 900  0.3+  0.4+    081011 J47  0.0   0.1-  
080820 900  0.4-  0.5+    080906 900  0.1+  0.4+    081011 J47  0.1+  0.6-  
080820 900  0.4-  0.1+    080906 J38  0.3-  0.0     081013 118  0.1+  0.4-  
080820 106  1.1-  0.9-    080906 J38  0.1+  0.1-    081013 118  0.2+  0.5-  
080820 104  0.3-  0.0     080906 J38  0.3+  0.3-    081014 A13  0.5-  0.3+  
080820 106  0.2+  1.2-    080907 H45  0.1+  0.2-    081014 A13  0.1-  0.1+  
080820 106  0.2-  1.0+    080907 H45  0.2+  0.3-    081014 J47  0.5+  0.1+  
080820 104  0.1-  0.1-    080907 H45  0.2+  0.6+    081014 J47  0.5+  0.1+  
080820 473  0.2+  0.4-    080907 H45  0.8+  0.1-    081014 J47  0.3-  0.8-  
080820 104  0.0   0.1-    080907 H45  0.2+  0.2+    081015 J38  0.6+  0.2+  
080820 106  0.1-  0.1+    080907 H45  0.0   0.2-    081015 J38  0.7+  0.6-  
080820 461  0.7-  0.1-    080907 J38  0.1+  0.2-    081015 J38  0.0   1.0-  
080820 461  0.4-  0.2+    080907 J38  0.0   0.0     081018 900  0.5-  0.1+  
080820 461  0.2-  0.1+    080907 J38  0.0   0.2+    081018 900  0.4-  0.3+  
080820 147  0.6-  0.3-    080908 B37  0.5-  0.1+    081018 629  0.3-  0.4-  
080820 147  0.1+  0.1+    080908 B37  0.4+  0.1-    081018 629  0.5-  0.1-  
080820 147  0.3+  0.3+    080908 B82  1.5+  0.2+    081019 J38  0.4+  0.1+  
080820 473  0.2-  0.8+    080908 B37  0.5-  0.1+    081019 J38  0.2+  0.0   
080820 147  0.4+  0.7-    080908 B82  0.7+  0.5+    081019 J38  0.0   0.1+  
080820 B20  0.7-  0.3+    080908 B82  0.8+  0.0     081020 B73  0.1-  0.3+  
080820 B09  0.2-  0.1-    080908 B82  0.4-  0.1-    081024 J38  0.3+  0.1+  
080820 B09  0.3-  0.5+    080908 B37  0.3-  0.2+    081024 J38  0.4+  0.3-  
080820 B20  0.6-  0.2+    080908 B82  0.5+  1.1+    081024 J38  0.4+  0.6-  
080820 232  0.7+  0.1-    080908 B37  0.6-  0.0     081025 B82  0.1+  0.2-  
080820 B09  0.5-  0.3+    080908 J38  0.1-  0.4+    081025 B82  0.7+  0.0   
080820 595  0.0   0.1-    080908 J38  0.2+  0.0     081025 B82  0.4-  0.0   
080820 B20  0.5-  0.0     080908 J38  0.1+  0.4-    081025 B82  1.8+  0.1+  
080820 458  0.2+  0.0     080908 B37  0.5-  0.0     081025 B82  0.0   0.3+  
080820 232  0.2+  0.3+    080908 B37  0.2-  0.3-    081025 A77  0.8+  0.5-  
080820 458  0.5-  0.3+    080908 585  0.0   0.7+    081025 A77  0.6+  0.1+  
080820 458  0.4-  0.2-    080908 585 (2.3-  1.6-)   081025 A77 (0.9+  3.4-) 
080820 232  0.2-  0.8+    080908 585  0.3+  1.9+    081025 204  0.9+  0.2+  
080820 232  0.0   0.1+    080909 B58  0.4-  0.0     081025 B37  0.2+  0.1+  
080820 232  0.2-  0.2+    080909 B58  0.0   0.2+    081025 B37  0.2+  0.1+  
080820 595  0.2+  0.0     080909 B82  1.2+  0.7-    081025 B37  0.1-  0.1-  
080821 900  0.4+  0.1-    080909 B82  0.1-  0.0     081025 B37  0.1+  0.1+  
080821 900  0.4-  0.1-    080909 B58 (2.1-  0.9+)   081025 204  0.1-  0.1+  
080821 A77  0.4+  0.1+    080909 B82  0.2-  0.1+    081026 673  0.6-  0.4+  
080821 A77  0.4+  0.3-    080909 J40  0.9+  0.1+    081026 673  0.4-  0.5+  
080821 152  0.1-  0.2+    080910 900  0.5-  0.1+    081026 673  0.3-  0.3+  
080821 A77  0.1+  0.1+    080910 900  0.5-  0.2+    081026 673  0.3-  0.6+  
080821 152  0.1-  0.0     080910 B82  0.3+  0.3-    081026 B37  0.2-  0.9-  
080821 152  0.2+  0.2+    080910 B82  0.6+  0.6+    081026 B37  0.5-  0.3-  
080821 152  0.1-  0.1+    080910 B82  1.2+  0.4+    081026 B37  0.2+  0.1-  
080821 213  0.2+  0.6+    080910 B82  0.4+  0.4-    081026 B37  1.2+  0.7+  
080821 213  0.4+  0.7+    080911 118  0.1-  0.4+    081026 B37  0.0   0.3-  
080821 213  0.3+  0.3+    080911 118  0.3+  0.7+    081101 349  1.2+  0.2-  
080821 152  0.6-  0.5+    080911 118  0.6-  0.5+    081101 349  1.1+  0.0   
080821 152  0.3-  0.5+    080911 J38  0.2-  0.8+    081105 J38  0.5+  0.2-  
080821 204  0.3-  0.2+    080911 J38  0.3-  0.6+    081105 J38  0.1+  0.9+  
080821 204  0.2-  0.0     080911 J38  0.3-  0.2+    081106 H53  0.6+  0.4+  
080822 204  0.0   0.1+    080912 B37  0.2-  0.3-    081106 H53  0.6+  0.2+  
080822 J95  0.0   0.1-    080912 B37  0.0   0.7-    081106 H53  0.5+  0.7-  
080822 J95  0.1+  0.0     080912 B37  0.1+  0.0     081106 H53  0.4+  0.1-  
080822 J95  0.1+  0.0     080912 B37  0.5+  1.4-    081106 H53  0.7+  1.6-  
080822 J38  0.3-  0.1+    080912 J47  1.2+  0.0     081106 H53  0.5+  0.1-  
080822 J38  0.1-  0.0     080912 J47  0.1+  0.4-    081106 B74  0.1-  0.1+  
080822 J38  0.1+  0.0     080912 J47  0.1-  1.0-    081106 B74  0.2-  1.5-  
080823 185  0.2-  0.0     080912 J47  0.6-  0.4-    081109 J79  0.5-  1.1+  
080823 185  0.1-  0.1+    080912 A77 (2.7+  2.0+)   081109 J79  1.4-  1.1+  
080823 A77  0.0   0.2+    080912 B37  0.4+  0.3-    081109 J79  0.3+  1.4+  
080823 J38  0.2+  0.0     080912 B37 (2.0-  1.5-)   081111 629  0.7+  0.7+  
080823 J38  0.0   0.2+    080912 A77  1.0+  0.5-    081111 629  0.9+  0.1-  
080823 147  0.1-  0.1-    080912 A77  1.4+  0.3-    081114 J24  0.4-  0.7+  
080823 J38  0.2+  0.3+    080913 J51  0.1+  0.3-    081114 J24  0.4+  0.8-  
080823 147  0.2-  0.0     080913 J51  0.1+  0.1-    081114 J24  0.3-  0.1+  
080823 147  0.0   0.2+    080913 J51  0.0   0.1+    081115 118  0.4-  0.5-  
080824 106  0.1-  0.2-    080914 B37  0.3-  0.1-    081115 118  0.2+  0.4-  
080824 106  0.8-  0.0     080914 B37  0.6-  0.6-    081115 118  0.1+  0.3-  
080824 106  0.4+  0.1-    080914 B37  0.3-  0.2+    081115 118  0.0   0.3-  
080824 106  0.4+  0.2+    080914 B37  0.4-  0.2+    081115 A77  0.7+  0.0   
080824 106  0.6-  0.2+    080914 B37  0.5-  0.6-    081115 A77  1.1+  0.1-  
080824 106  0.3-  0.0     080914 B37  0.3-  0.2-    081115 A77  0.4+  0.2+  
080824 106  0.0   0.2+    080914 B37  0.0   0.4-    081115 212 (0.5-  2.6-) 
080824 106  0.7-  0.8+    080914 B37  0.0   0.4+    081115 212  0.1-  0.0   
080824 215  0.2+  0.0     080914 J38  0.4+  0.1+    081115 212  0.9+  1.8-  
080824 215  0.2+  0.1-    080914 J38  0.6+  0.0     081116 213  0.2+  1.5+  
080824 046  0.5-  0.1-    080914 J38  0.3+  0.0     081116 213  0.3+  1.6+  
080824 215  0.2+  0.1-    080914 B37  0.1+  0.6-    081120 900  1.1-  1.7-  
080824 046  0.1-  0.0     080914 B37  0.5-  0.2-    081120 900  0.8-  0.3-  
080824 046  0.1+  0.2+    080914 B37  0.5-  0.1-    081127 215  0.2+  0.2-  
080824 046  0.6-  0.3+    080914 B37 (0.0   2.0+)   081127 215  0.0   0.2+  
080824 046  0.4-  0.4+    080915 J97  0.4+  1.0+    081127 215  0.3-  0.3+  
080824 046  0.6-  0.4+    080915 J97  0.3+  1.2+    2009/                   
080824 046  0.1-  0.8+    080915 J97  0.3+  0.9+    090112 349  0.1+  0.2+  
080824 046  0.4-  0.1-    080915 B37  0.1-  0.5-    090112 349  0.2-  0.1-  
080824 J69  0.0   0.4+    080915 B37  0.2-  0.1+    090112 349  0.2-  0.0   
080824 J69  0.4-  0.2+    080915 A13  1.1+  0.5+    090204 H10  0.1-  0.3+  
080824 J69  0.3-  0.1+    080915 B37  0.1-  0.2-    090204 H10  0.2-  0.0   
080824 213  0.4-  0.0     080915 B37  0.3-  0.1-    090204 H10  0.5-  0.2+  
080824 J27  0.1-  0.3+    080915 A13  0.8-  0.0     090212 204  0.1-  0.2-  
080824 213  0.3-  0.0     080915 B37  0.1-  0.2-    090212 204  0.2-  0.1+  
080824 213  0.3-  0.2+    080915 B37  0.1-  0.5-    090214 H10  0.1+  0.8+  
080824 J27  0.1+  0.3+    080915 J47  0.1+  0.7+    090214 H10  0.4-  1.5+  
080824 J47  0.3-  0.4+    080915 J47  0.5+  0.5+    090214 H10  0.6-  1.7+  
080824 J47  0.3+  0.3+    080915 J47  0.4+  0.7-    090217 349  0.1+  0.1+  
080824 J47  0.2+  0.4-    080915 J47  0.6+  0.7-    090217 349  0.3+  0.3+  
080825 372  0.1-  0.0     080915 J47  1.0+  1.1-    090217 349  0.1+  0.2+  
080825 372  0.1-  0.1+    080916 673  0.0   0.4+    090220 H36  0.2+  0.2+  
080825 372  0.1-  0.1+    080916 673  0.1-  0.0     090220 H36  0.2+  0.2+  
080825 461  0.0   0.2+    080916 673  0.0   0.2+    090221 J38  0.2-  0.1-  
080825 461  0.3-  0.3-    080916 673  0.0   0.7+    090221 J38  0.2-  0.3-  
080825 461  0.3-  0.4+    080916 900  0.2+  0.5+    090221 J38  0.8-  0.1+  
080825 461  0.2-  0.3+    080916 900  0.2-  0.2-    090221 900  0.0   0.1+  
080825 J51  1.0-  1.1-    080916 A13 (3.9-  0.0 )   090221 900  0.1-  0.1-  
080825 J51  0.1-  0.6-    080916 A13 (3.4-  0.8+)   090311 900  0.4-  0.3+  
080825 J51  0.7+  0.7-    080916 J51  0.2-  0.5-    090311 900  0.4-  0.2+  
080825 J53  0.3-  0.2+    080916 J51  0.2+  0.4-    090314 349  0.2+  0.2-  
080825 J53  0.4-  0.2+    080916 J51  0.8+  0.1-    090314 349  0.2+  0.3-  
080825 J53  0.5-  0.0     080916 204  0.2+  0.1+    090314 349  0.0   0.3-  
080826 585  0.6-  0.1-    080917 204  0.3-  0.4+    090315 B90  0.0   0.1-  
080826 585  0.8-  0.8+    080917 213  0.1+  0.3-    090315 B90  0.1-  0.2-  
080826 585  0.2+  0.6+    080917 213  0.1+  0.2-    090318 J38  0.2-  0.1+  
080826 585  0.4+  0.6+    080917 B37  0.1+  0.8-    090318 J38  0.2-  0.0   
080826 585  0.3-  0.4+    080917 B37  0.5+  0.7-    090318 J38  0.0   0.0   
080826 585  0.2+  0.1+    080917 B37  0.2-  0.1-    090320 J38  0.1-  0.6-  
080826 585  0.2-  0.1+    080917 B37  0.4+  0.3-    090320 J38  0.0   0.5-  
080826 585  0.8-  0.3-    080919 850  0.1+  0.1-    090320 J38  0.1-  0.3-  
080826 585  0.3-  1.2+    080919 850  0.4+  0.0     090320 D80  0.1-  0.0   
080826 585  1.0-  0.1-    080921 J28  0.5-  0.4-    090320 900  0.1-  0.0   
080826 A77  0.2-  0.0     080921 J28  1.0+  0.5-    090320 D80 (2.0-  0.4-) 
080826 473  0.2-  0.2+    080922 D88  1.0+  1.0-    090320 900  0.9-  0.9-  
080826 A77  0.2-  0.1-    080922 D88  0.8+  1.2-    090323 B42  0.6-  0.8+  
080826 A77  0.2-  0.4+    080922 D88  0.0   0.2-    090323 B42  0.6-  0.3+  
080826 473  0.2+  0.3+    080922 B24  0.6-  0.9-    090323 J38  0.0   0.9-  
080827 046  0.3-  0.0     080922 B24  1.5-  1.7-    090323 B42  0.0   0.7+  
080827 046  0.1+  0.1+    080922 B24 (2.2-  1.9-)   090323 J38  0.4-  0.2+  
080827 046  0.3-  0.5+    080923 J38  0.0   0.1+    090323 B74 (2.1-  1.9+) 
080827 046  0.0   0.3+    080923 J38  0.0   0.0     090323 J38  0.0   0.3-  
080827 046  0.4+  0.1-    080923 J38  0.1-  0.5-    090323 B74  1.0-  0.1+  
080827 046  0.1+  0.0     080924 J38  0.1+  0.2+    090323 B74  0.3-  0.0   
080827 046  0.3-  0.1+    080924 J38  0.3+  0.1+    090323 204  0.1-  0.1-  
080827 B50  0.4+  0.2-    080924 J38  0.1+  0.0     090323 204  0.3+  0.2+  
080827 J51  0.0   0.6-    080925 J38  0.2+  0.0     090325 J38  0.1-  0.4+  
080827 B50  0.0   0.8-    080925 J38  0.2-  0.0     090325 J38  0.5-  0.2+  
080827 J51  0.2+  0.5-    080925 J38  0.3+  0.8+    090325 J38  0.9-  1.4-  
080827 B50  0.0   0.8-    080926 J53  0.4-  0.5-    090325 A77  0.0   0.8-  
080827 J51  0.6-  0.0     080926 J53  0.4-  0.7-    090325 A77  0.1+  0.1-  
080827 B50  0.4-  0.3-    080926 J53  0.3-  0.4-    090325 A77  0.2+  0.2-  
080827 B50  0.6-  0.7-    080927 213  0.1-  1.3-    090326 D93  0.1-  0.1+  
080827 B50  0.2-  1.4-    080927 213  0.2-  0.4-    090326 D93  0.7-  0.1+  
080828 118  0.4+  0.4+    080927 213  0.6-  0.2+    090327 379  0.0   0.2-  
080828 118  0.7-  0.7+    080927 J38  0.3+  0.4-    090327 379  0.3-  0.2-  
080828 118  0.0   0.5+    080927 J38  0.2+  0.0     090327 379  0.2-  0.5-  
080829 118  0.3+  0.2+    080927 J38  0.4+  0.2-    090327 379  0.2+  0.4-  
080829 118  0.0   0.3+    080928 B37  0.6+  0.6-    090327 379  0.2+  0.0   
080829 118  0.2-  0.3+    080928 B37  0.6+  0.6-    090327 379  0.3-  0.2+  
080829 213  0.3-  0.1-    080928 B37  0.3+  0.7-    090327 379  0.4-  0.1-  
080829 213  0.3-  0.1-    080928 B37  0.0   0.2+    090330 D93  0.9-  0.3+  
080829 213  0.3-  0.2-    080928 585  1.0+  1.8-    090330 D93  0.1+  0.3+  
080829 204  0.1-  0.1-    080928 585  0.7+  1.5-    090330 D93  0.0   0.3+  
080829 J51  0.1-  0.2-    080928 585 (2.2-  0.6-)   090331 118  0.4+  0.1+  
080829 J51  0.6-  0.0     080929 104  0.0   0.1-    090331 118  0.0   0.1+  
080829 B37  1.0-  0.6+    080929 629  0.1+  0.2+    090331 118  0.3+  0.1-  
080829 B37  0.6-  0.3-    080929 104  0.0   0.0     090401 H45  0.1+  0.1+  
080829 J51 (2.2-  0.6+)   080929 629  0.0   0.3+    090401 H45  0.2+  0.1+  
080829 B37  0.7-  0.6-    080929 104  0.2-  0.1-    090401 H45  0.1-  0.0   
080829 J47  0.8+  0.8+    080929 130  0.2-  0.3-    090401 H45  0.2+  0.2+  
080829 J47  0.3+  1.1+    080929 130  0.1+  0.6-    090401 H45  0.2+  0.1+  
080829 J47  0.6+  0.9+    080929 130  0.0   0.5-    090401 H45  0.1+  0.2+  
080829 B37  0.5-  0.2+    080929 130  0.3+  0.4-    090403 510  0.3+  0.2-  
080829 B37  1.2+  1.5+    080929 J38  0.3+  0.1-    090403 510  0.1+  0.9+  
080829 204  0.2-  0.1+    080929 J38  0.4+  0.3-    090403 510  0.1+  0.4+  
080830 673  0.6-  0.5+    080929 J38  0.3+  0.1+    090404 H10 (2.0+  0.5-) 
080830 673  0.2-  0.7+    080930 J53  0.3-  0.3-    090405 J52  0.4-  0.9-  
080830 673  0.2-  0.5+    080930 J53  0.4-  0.1-    090405 J52  0.1+  0.7-  
080830 673  0.2-  0.5+    080930 J53  0.4-  0.1-    090405 J52  0.1+  0.7-  
080830 046  0.2-  0.0     081001 900  0.2-  0.7-    090405 D81  0.7+  0.6-  
080830 046  0.1-  0.4+    081001 900  0.1-  0.2+    090405 D81  0.5+  0.2+  
080830 046  0.1-  0.1+    081001 213  0.0   0.1-    090405 D93  0.2+  0.5+  
080830 046  0.3-  0.1-    081001 213  0.5-  0.2+    090405 D93  1.1-  1.0+  
080830 046  0.2-  0.0     081001 J38  0.3+  0.2-    090405 D93  0.6+  1.3+  
080830 046  0.0   0.4+    081001 J38  0.1+  0.0     090405 J38 (3.3+  1.3-) 
080830 046  0.2-  0.1+    081001 213  0.0   0.0     090405 J38 (2.5+  1.0-) 
080830 046  0.4-  0.0     081001 J38  0.0   0.2+    090406 379  0.1+  1.0+  
080831 900  0.4-  0.1+    081002 703  0.8+  0.1-    090406 379  0.0   0.5+  
080831 900  0.1-  0.4+    081002 703  0.9+  0.2+    090406 379  0.4-  0.3+  
080831 J27  1.0+  0.5+    081002 703  1.5+  0.2-    090406 D93  0.2-  0.3+  
080831 J27  0.1-  0.3+    081002 367  0.3+  0.2+    090406 D93  0.4-  0.3+  
080831 J27  0.5+  0.2-    081002 367  0.3+  0.2+    090406 D93  0.6-  0.5+  
080901 A77  0.3+  0.3-    081002 367  0.6+  0.0     090415 379  0.0   0.6-  
080901 A77  0.3+  0.1+    081002 B37  1.0+  0.3+    090415 379  0.3+  0.2-  
080901 A77  0.1+  0.0     081002 B37  0.3+  1.1+    090415 379  0.8+  0.1+  
080901 J53  0.3+  0.4-    081002 B37  0.8+  1.3+                            
NAKANO
         **** Don't distribute anyone except personal use only ****
                (C) Copyright 2009 OAA/ComputingSection
write mail from CFAD0::NAKANO on 2009-04-17 06:28:28(JST).
 
